Regional Weather Roundup
Issued by NWS

Home | Current Version | Previous Version | Graphics & Text | Print | Product List | Glossary On
Versions: 1 2 3 4 5 6 7 8 9 10 11 12 13 14 15 16 17 18 19 20 21 22 23 24 25 26 27 28 29 30 31 32 33 34 35 36 37 38 39 40 41 42 43 44 45 46 47 48 49 50
309
ASUS45 KBOU 310007
RWRCO

WEATHER ROUNDUP FOR COLORADO
NATIONAL WEATHER SERVICE DENVER/BOULDER CO
600 PM MDT MON MAY 30 2016

NOTE: "FAIR" INDICATES FEW OR NO CLOUDS BELOW 12000 FEET WITH NO
SIGNIFICANT WEATHER AND/OR OBSTRUCTIONS TO VISIBILITY.

COZ001>005-013-030-031-310100-
...NORTHWEST COLORADO...

CITY           SKY/WX    TMP DP  RH WIND       PRES   REMARKS
CRAIG          FAIR      68  36  30 SW7       30.06S
HAYDEN         FAIR      68  36  30 NW9       30.07F
MEEKER         FAIR      64  38  38 NE10      30.09S
MOUNT WERNER   NOT AVBL
STEAMBOAT SPGS FAIR      64  37  36 W12       30.09R
WALDEN         NOT AVBL
$$

COZ006>008-011-310100-
...WEST CENTRAL VALLEYS...

CITY           SKY/WX    TMP DP  RH WIND       PRES   REMARKS
GRAND JUNCTION FAIR      76  29  17 S10       29.97F
MONTROSE       FAIR      72  27  18 N10       30.05R
EAGLE          MOSUNNY   66  30  26 W17G29    30.12R
RIFLE          FAIR      67  30  25 SE10      30.04F
DELTA          FAIR      77  23  13 S10       29.98S
NUCLA          FAIR      73  23  15 NW10      30.07F
$$

COZ017>023-064>068-310100-
...SOUTHWEST COLORADO...

CITY           SKY/WX    TMP DP  RH WIND       PRES   REMARKS
DURANGO        FAIR      75  14  10 SW12      30.03F
CORTEZ         FAIR      75  20  12 W13G22    30.01S
PAGOSA SPRINGS FAIR      71   6   8 SW13      30.11S
TELLURIDE      LGT RAIN  54  31  41 NE3       30.25S
WOLF CREEK PAS FAIR      46  16  29 SW21G29   30.39S
$$

COZ009-010-012-014-032>034-037-058>063-310100-
...CENTRAL COLORADO...

CITY           SKY/WX    TMP DP  RH WIND       PRES   REMARKS
ASPEN          LGT RAIN  56  32  40 NW9G35    30.19R
BUENA VISTA    FAIR      61  21  21 W16G24    30.17R
COPPER MTN     NOT AVBL
BERTHOUD PASS  TSTM      30  21  69 NW29G44   30.38S WCI  15
COTTONWOOD PAS FAIR      54  21  28 SW20G28   30.29R
GUNNISON       FAIR      61  28  29 E14       30.19S
KREMMLING      CLOUDY    52  36  54 S7        30.17S
LEADVILLE      FAIR      50  24  36 S13       30.25F
MONARCH PASS   FAIR      36  30  80 N15G25    30.51F
SALIDA         PTSUNNY   59  32  36 W29G39    30.25R
SUNLIGHT       CLOUDY    43  30  61 CALM      30.35S
WILKERSON PASS CLOUDY    45  25  45 SW10G16   30.36S
$$

COZ069>075-310100-
...SAN LUIS VALLEY/SANGRE DE CRISTO MOUNTAINS...

CITY           SKY/WX    TMP DP  RH WIND       PRES   REMARKS
ALAMOSA        FAIR      71  17  12 SW12      30.05F
LA VETA PASS   FAIR      61  21  21 S6        30.24F
SAGUACHE       CLOUDY    61  28  29 N25G32    30.13S
$$

COZ035-036-038>040-310100-
...NORTHERN COLORADO FRONT RANGE...

CITY           SKY/WX    TMP DP  RH WIND       PRES   REMARKS
DENVER INTL AP PTSUNNY   60  48  64 SE9       30.00S
DMNS CITY PARK   N/A     66  39  38 E12G20    30.00R
AURORA         PTSUNNY   62  43  50 E13G22    30.01S
FRONT RANGE AP PTSUNNY   59  48  67 E12G17    30.01F
ERIE MUNI ARPT FAIR      70  37  29 N10       29.99R
BOULDER MUN AP FAIR      66  45  45 NW9       30.02R
CENTENNIAL     PTSUNNY   64  37  36 E12G24    30.02R
BROOMFIELD     PTSUNNY   68  37  32 SE8       30.02R
FORT COLLINS   FAIR      45  43  93 NE9       30.00R
LONGMONT       FAIR      70  42  37 N7        30.03R
$$

COZ041-046-047-076>085-087-088-310100-
...PIKES PEAK/PALMER DIVIDE AND SOUTHERN FOOTHILLS...

CITY           SKY/WX    TMP DP  RH WIND       PRES   REMARKS
COLO. SPRINGS  PTSUNNY   71  35  26 S13       30.00F
A. F. ACADEMY  PTSUNNY   70  25  18 NE18      30.02R
SCHRIEVER AFB  NOT AVBL
ELLICOTT       NOT AVBL
FALCON         FAIR      65  35  32 N10G18    30.07R
FORT CARSON    FAIR      70  37  30 SE10      29.97S
LIMON          FAIR      68  40  35 SE8       29.98S
MONUMENT HILL  FAIR      59  37  44 NE17G29   30.10R
TRINIDAD       FAIR      78  30  17 S20G26    29.96F
$$

COZ042>045-048>051-090-091-310100-
...NORTHEAST COLORADO...

CITY           SKY/WX    TMP DP  RH WIND       PRES   REMARKS
GREELEY ARPT   FAIR      68  45  42 E17       29.98R
AKRON          RAIN      55  49  80 N5        30.05R
BURLINGTON     FAIR      74  53  48 W18G29    29.91R
WRAY           FAIR      64  54  68 N21G30    29.91R
STERLING       PTSUNNY   59  50  72 SE9G15    29.97R
HOLYOKE        CLOUDY    61  50  67 NW22      29.96R
FORT MORGAN    FAIR      60  47  64 NW6       30.01R
$$

COZ086-089-092>099-310100-
...SOUTHEAST COLORADO...

CITY           SKY/WX    TMP DP  RH WIND       PRES   REMARKS
PUEBLO         FAIR      78  41  26 NE6       29.88F
LA JUNTA       FAIR      81  34  18 SE20G29   29.86R
LAMAR          FAIR      83  34  17 SE21G38   29.84R
SPRINGFIELD      N/A     77  44  30 SW7       29.90F
$$




USA.gov is the U.S. government's official web portal to all federal, state and local government web resources and services.